User: anonymous   Login
Location: Reading
(52.0000°N, 0.0000°E)
Time: 05:26:25
(UTC+00:00)
Language:

Iridium 41 - Orbit

View from above orbital plane
View from above orbital plane
View from above satellite
View from above satellite

Ground track
Ground track

The orbit data is extracted from the following two-line orbital elements,

1 25040U 97069B   14354.56003345  .00000713  00000-0  24749-3 0   750
2 25040 086.3956 042.1546 0002390 105.9473 007.2048 14.34227512895931
Epoch (UTC): 20 December 2014 13:26:26
Eccentricity: 0.0002390
inclination: 86.3956°
perigee height: 776 km
apogee height: 779 km
right ascension of ascending node: 42.1546°
argument of perigee: 105.9473°
revolutions per day: 14.34227512
mean anomaly at epoch: 7.2048°
orbit number at epoch: 89593

The dashed part of the orbit path shows where the satellite is in the earth's shadow,  

DLR